�������l�o���
Date,Time,MP-1(��Sv/h),MP-2(��Sv/h),MP-3(��Sv/h),MP-4(��Sv/h),MP-5(��Sv/h),MP-6(��Sv/h),MP-7(��Sv/h),MP-8(��Sv/h),����,����(m/s),���J
2017/11/23,00:00,0.925,1.495,0.955,1.784,1.218,0.504,0.905,0.857,�쓌,2.2,�L
2017/11/23,00:10,0.927,1.493,0.956,1.783,1.220,0.503,0.904,0.856,�쓌,1.4,�L
2017/11/23,00:20,0.925,1.492,0.956,1.785,1.220,0.504,0.903,0.855,��쓌,1.7,�L
2017/11/23,00:30,0.926,1.492,0.953,1.781,1.217,0.505,0.905,0.856,��,1.4,�L
2017/11/23,00:40,0.924,1.493,0.956,1.783,1.217,0.504,0.904,0.854,��,1.1,�L
2017/11/23,00:50,0.926,1.494,0.953,1.780,1.218,0.504,0.905,0.854,��쐼,0.8,�L
2017/11/23,01:00,0.925,1.491,0.956,1.783,1.218,0.504,0.905,0.856,��,0.9,�L
2017/11/23,01:10,0.925,1.491,0.954,1.783,1.216,0.502,0.904,0.855,���k��,1.1,�L
2017/11/23,01:20,0.924,1.492,0.955,1.785,1.216,0.503,0.905,0.854,�k��,2.0,�L
2017/11/23,01:30,0.925,1.493,0.954,1.783,1.218,0.502,0.905,0.855,�k��,0.9,�L
2017/11/23,01:40,0.927,1.491,0.956,1.781,1.218,0.502,0.905,0.855,��쐼,0.6,�L
2017/11/23,01:50,0.925,1.491,0.954,1.783,1.218,0.504,0.904,0.855,�k�k��,1.5,�L
2017/11/23,02:00,0.924,1.492,0.952,1.782,1.216,0.505,0.904,0.852,�k,1.4,�L
2017/11/23,02:10,0.924,1.491,0.953,1.781,1.215,0.503,0.903,0.855,�k,1.1,�L
2017/11/23,02:20,0.922,1.489,0.954,1.780,1.214,0.504,0.904,0.853,���k��,1.2,�L
2017/11/23,02:30,0.921,1.489,0.955,1.779,1.216,0.503,0.901,0.856,�k��,2.5,�L
2017/11/23,02:40,0.925,1.489,0.952,1.781,1.213,0.504,0.903,0.855,�k�k��,3.0,�L
2017/11/23,02:50,0.922,1.487,0.952,1.777,1.213,0.503,0.904,0.856,�k��,2.8,�L
2017/11/23,03:00,0.923,1.488,0.950,1.780,1.212,0.504,0.903,0.853,�k�k��,3.4,�L
2017/11/23,03:10,0.921,1.483,0.950,1.775,1.210,0.504,0.902,0.853,�k�k��,3.9,�L
2017/11/23,03:20,0.917,1.481,0.948,1.775,1.206,0.502,0.901,0.851,�k�k��,3.6,�L
2017/11/23,03:30,0.916,1.472,0.945,1.768,1.202,0.503,0.898,0.852,�k��,3.1,�L
2017/11/23,03:40,0.911,1.466,0.943,1.761,1.198,0.501,0.897,0.850,�k��,4.5,�L
2017/11/23,03:50,0.909,1.463,0.939,1.756,1.195,0.500,0.896,0.849,�k��,4.1,�L
2017/11/23,04:00,0.909,1.459,0.939,1.752,1.195,0.500,0.896,0.848,�k��,3.2,�L
2017/11/23,04:10,0.907,1.457,0.937,1.749,1.194,0.499,0.896,0.846,���k��,2.5,�L
2017/11/23,04:20,0.905,1.453,0.936,1.742,1.189,0.499,0.893,0.848,���쐼,1.7,�L
2017/11/23,04:30,0.904,1.452,0.934,1.742,1.187,0.497,0.893,0.846,�쐼,2.6,�L
2017/11/23,04:40,0.904,1.451,0.934,1.738,1.185,0.498,0.892,0.846,��쐼,3.2,�L
2017/11/23,04:50,0.904,1.445,0.935,1.734,1.182,0.498,0.892,0.844,��쐼,3.6,�L
2017/11/23,05:00,0.901,1.442,0.928,1.730,1.182,0.497,0.890,0.843,��,3.0,�L
2017/11/23,05:10,0.900,1.442,0.930,1.729,1.179,0.497,0.890,0.845,��쓌,2.5,�L
2017/11/23,05:20,0.903,1.442,0.929,1.730,1.181,0.497,0.890,0.844,��쓌,1.2,�L
2017/11/23,05:30,0.901,1.444,0.930,1.731,1.183,0.497,0.891,0.846,��쓌,2.0,�L
2017/11/23,05:40,0.903,1.444,0.931,1.729,1.183,0.499,0.891,0.844,�쓌,1.7,�L
2017/11/23,05:50,0.901,1.447,0.928,1.731,1.179,0.497,0.890,0.845,�쓌,1.2,�L
2017/11/23,06:00,0.901,1.442,0.928,1.730,1.180,0.497,0.890,0.845,�쓌,0.9,�L
2017/11/23,06:10,0.900,1.444,0.928,1.726,1.176,0.497,0.890,0.843,��쓌,1.4,�L
2017/11/23,06:20,0.901,1.441,0.930,1.729,1.180,0.499,0.889,0.844,�쓌,1.7,�L
2017/11/23,06:30,0.900,1.439,0.929,1.725,1.177,0.498,0.888,0.843,��쓌,0.9,�L
2017/11/23,06:40,0.900,1.436,0.927,1.724,1.176,0.498,0.888,0.843,-,CALM,�L
2017/11/23,06:50,0.896,1.433,0.926,1.718,1.173,0.497,0.888,0.842,�k��,1.1,�L
2017/11/23,07:00,0.897,1.435,0.927,1.718,1.174,0.498,0.888,0.842,���k��,1.1,�L
2017/11/23,07:10,0.898,1.436,0.923,1.718,1.173,0.498,0.887,0.842,�k��,1.5,�L
2017/11/23,07:20,0.897,1.436,0.925,1.718,1.175,0.498,0.888,0.843,���k��,1.7,�L
2017/11/23,07:30,0.897,1.436,0.924,1.719,1.173,0.497,0.888,0.841,���k��,1.7,�L
2017/11/23,07:40,0.900,1.434,0.924,1.718,1.173,0.497,0.887,0.843,�k�k��,1.5,�L
2017/11/23,07:50,0.900,1.433,0.923,1.717,1.173,0.497,0.887,0.842,�k�k��,1.5,�L
2017/11/23,08:00,0.897,1.435,0.925,1.718,1.170,0.496,0.889,0.841,�k�k��,1.1,�L
2017/11/23,08:10,0.898,1.435,0.925,1.717,1.174,0.497,0.888,0.842,-,CALM,�L
2017/11/23,08:20,0.896,1.434,0.924,1.715,1.175,0.496,0.889,0.841,�쐼,0.9,�L
2017/11/23,08:30,0.899,1.432,0.924,1.714,1.172,0.497,0.889,0.842,���쐼,1.5,�L
2017/11/23,08:40,0.897,1.430,0.921,1.713,1.172,0.498,0.887,0.842,�쐼,1.4,�L
2017/11/23,08:50,0.895,1.428,0.921,1.711,1.170,0.497,0.882,0.843,���쐼,1.5,�L
2017/11/23,09:00,0.896,1.425,0.922,1.712,1.168,0.497,0.883,0.840,���k��,0.6,�L
2017/11/23,09:10,0.894,1.422,0.919,1.708,1.167,0.496,0.885,0.840,�k��,1.1,�L
2017/11/23,09:20,0.896,1.422,0.919,1.705,1.167,0.497,0.883,0.841,�k��,2.2,�L
2017/11/23,09:30,0.894,1.424,0.919,1.706,1.168,0.497,0.884,0.842,���k��,2.6,�L
2017/11/23,09:40,0.893,1.427,0.920,1.708,1.168,0.496,0.884,0.841,�k��,4.2,�L
2017/11/23,09:50,0.893,1.423,0.918,1.707,1.164,0.495,0.885,0.839,�k��,4.8,�L
2017/11/23,10:00,0.894,1.422,0.917,1.705,1.163,0.495,0.884,0.840,�k��,5.1,�L
2017/11/23,10:10,0.893,1.422,0.918,1.704,1.161,0.493,0.883,0.841,�k��,5.1,�L
2017/11/23,10:20,0.892,1.420,0.916,1.704,1.162,0.495,0.882,0.839,�k��,5.5,�L
2017/11/23,10:30,0.892,1.418,0.914,1.701,1.164,0.495,0.881,0.839,�k��,5.9,�L
2017/11/23,10:40,0.892,1.415,0.916,1.700,1.161,0.495,0.881,0.838,�k��,6.9,�L
2017/11/23,10:50,0.890,1.416,0.915,1.698,1.160,0.495,0.881,0.838,�k��,6.1,�L
2017/11/23,11:00,0.891,1.417,0.916,1.697,1.161,0.496,0.883,0.837,���k��,6.3,�L
2017/11/23,11:10,0.891,1.412,0.916,1.695,1.159,0.495,0.881,0.840,���k��,6.1,�L
2017/11/23,11:20,0.887,1.411,0.913,1.693,1.152,0.495,0.879,0.836,�k��,5.1,�L
2017/11/23,11:30,0.887,1.412,0.914,1.693,1.154,0.497,0.880,0.838,�k��,3.2,�L
2017/11/23,11:40,0.889,1.416,0.913,1.695,1.157,0.496,0.881,0.839,�k��,3.3,�L
2017/11/23,11:50,0.891,1.418,0.914,1.697,1.160,0.496,0.881,0.838,�k��,3.4,�L
2017/11/23,12:00,0.891,1.415,0.917,1.699,1.158,0.497,0.879,0.838,-,CALM,�L
2017/11/23,12:10,0.891,1.416,0.917,1.694,1.158,0.496,0.882,0.838,�k��,5.4,�L
2017/11/23,12:20,0.895,1.418,0.918,1.698,1.159,0.497,0.880,0.838,�k��,5.9,�L
2017/11/23,12:30,0.894,1.420,0.917,1.699,1.160,0.497,0.880,0.839,�k��,6.0,�L
2017/11/23,12:40,0.894,1.417,0.917,1.700,1.161,0.496,0.873,0.840,�k�k��,5.7,�L
2017/11/23,12:50,0.893,1.421,0.917,1.697,1.162,0.497,0.875,0.839,�k�k��,6.0,�L
2017/11/23,13:00,0.894,1.419,0.917,1.699,1.161,0.496,0.874,0.840,�k�k��,6.5,�L
2017/11/23,13:10,0.894,1.419,0.915,1.700,1.162,0.495,0.873,0.839,�k�k��,5.8,��
2017/11/23,13:20,0.893,1.416,0.913,1.698,1.161,0.494,0.878,0.840,�k�k��,5.8,��
2017/11/23,13:30,0.892,1.423,0.914,1.699,1.162,0.493,0.879,0.838,�k�k��,6.0,�L
2017/11/23,13:40,0.891,1.418,0.915,1.701,1.159,0.494,0.881,0.839,�k�k��,6.2,�L
2017/11/23,13:50,0.891,1.418,0.913,1.700,1.162,0.495,0.881,0.842,�k�k��,6.2,��
2017/11/23,14:00,0.889,1.420,0.912,1.701,1.162,0.492,0.883,0.839,�k�k��,6.4,��
2017/11/23,14:10,0.892,1.420,0.915,1.701,1.163,0.492,0.883,0.841,�k,6.2,��
2017/11/23,14:20,0.891,1.421,0.913,1.696,1.161,0.493,0.881,0.841,�k,6.5,��
2017/11/23,14:30,0.891,1.423,0.915,1.700,1.162,0.492,0.881,0.840,�k,6.0,��
2017/11/23,14:40,0.892,1.422,0.914,1.703,1.162,0.493,0.883,0.840,�k,7.9,��
2017/11/23,14:50,0.892,1.424,0.915,1.703,1.163,0.492,0.884,0.839,�k,5.5,��
2017/11/23,15:00,0.892,1.424,0.915,1.702,1.161,0.495,0.881,0.839,�k�k��,5.5,��
2017/11/23,15:10,0.892,1.422,0.918,1.699,1.161,0.494,0.882,0.840,�k��,7.2,��
2017/11/23,15:20,0.890,1.424,0.917,1.701,1.157,0.493,0.884,0.838,�k�k��,7.1,��
2017/11/23,15:30,0.893,1.423,0.915,1.705,1.159,0.494,0.883,0.838,�k�k��,5.7,��
2017/11/23,15:40,0.891,1.426,0.915,1.706,1.159,0.493,0.883,0.841,�k�k��,5.2,��
2017/11/23,15:50,0.892,1.424,0.916,1.702,1.160,0.492,0.886,0.841,�k�k��,6.3,��
2017/11/23,16:00,0.891,1.426,0.915,1.701,1.160,0.494,0.883,0.841,�k��,5.7,��
2017/11/23,16:10,0.893,1.427,0.917,1.707,1.161,0.493,0.884,0.839,�k��,9.7,��
2017/11/23,16:20,0.892,1.426,0.916,1.707,1.158,0.493,0.885,0.839,�k��,7.9,��
2017/11/23,16:30,0.890,1.425,0.916,1.708,1.164,0.494,0.886,0.841,�k��,7.3,��
2017/11/23,16:40,0.893,1.427,0.914,1.705,1.162,0.493,0.886,0.840,���k��,8.5,��
2017/11/23,16:50,0.893,1.428,0.915,1.708,1.164,0.492,0.885,0.839,���k��,10.9,��
2017/11/23,17:00,0.892,1.426,0.915,1.710,1.165,0.492,0.883,0.838,���k��,11.9,��
2017/11/23,17:10,0.892,1.429,0.917,1.708,1.164,0.492,0.885,0.842,�k��,9.5,��
2017/11/23,17:20,0.890,1.430,0.918,1.711,1.163,0.493,0.884,0.839,�k��,8.1,��
2017/11/23,17:30,0.893,1.428,0.921,1.709,1.165,0.493,0.884,0.842,�k��,8.8,��
2017/11/23,17:40,0.892,1.427,0.917,1.709,1.166,0.491,0.884,0.840,�k��,10.9,��
2017/11/23,17:50,0.891,1.429,0.917,1.714,1.164,0.493,0.884,0.840,�k��,9.7,��
2017/11/23,18:00,0.891,1.430,0.918,1.711,1.163,0.494,0.885,0.841,�k��,8.2,��
2017/11/23,18:10,0.894,1.428,0.917,1.709,1.166,0.494,0.883,0.841,���k��,7.4,��
2017/11/23,18:20,0.893,1.429,0.917,1.711,1.165,0.494,0.885,0.842,�k��,7.3,��
2017/11/23,18:30,0.892,1.427,0.916,1.710,1.166,0.492,0.886,0.842,�k��,5.5,��
2017/11/23,18:40,0.892,1.429,0.920,1.712,1.165,0.493,0.884,0.842,�k��,4.8,��
2017/11/23,18:50,0.891,1.429,0.917,1.713,1.165,0.493,0.884,0.842,�k�k��,5.8,��
2017/11/23,19:00,0.892,1.427,0.918,1.710,1.166,0.492,0.885,0.841,�k��,3.4,��
2017/11/23,19:10,0.890,1.429,0.917,1.708,1.166,0.493,0.885,0.841,�k��,3.6,��
2017/11/23,19:20,0.894,1.427,0.918,1.710,1.162,0.492,0.885,0.841,���k��,3.2,��
2017/11/23,19:30,0.892,1.426,0.915,1.710,1.165,0.492,0.884,0.842,��,2.3,��
2017/11/23,19:40,0.892,1.429,0.917,1.712,1.167,0.491,0.884,0.842,�k��,3.4,��
2017/11/23,19:50,0.889,1.429,0.916,1.711,1.164,0.492,0.886,0.842,���k��,4.6,��
2017/11/23,20:00,0.891,1.430,0.918,1.714,1.166,0.493,0.885,0.840,���k��,7.7,��
2017/11/23,20:10,0.890,1.430,0.918,1.714,1.167,0.493,0.886,0.841,�k��,5.6,��
2017/11/23,20:20,0.890,1.430,0.917,1.713,1.167,0.492,0.884,0.840,�k��,4.6,��
2017/11/23,20:30,0.889,1.428,0.919,1.713,1.167,0.491,0.885,0.841,���k��,6.5,��
2017/11/23,20:40,0.889,1.429,0.916,1.712,1.165,0.493,0.884,0.840,���k��,6.8,�L
2017/11/23,20:50,0.891,1.431,0.917,1.711,1.166,0.491,0.885,0.841,���k��,5.4,�L
2017/11/23,21:00,0.890,1.430,0.916,1.709,1.166,0.492,0.884,0.841,�k��,6.4,��
2017/11/23,21:10,0.890,1.430,0.916,1.710,1.167,0.492,0.885,0.840,���k��,6.5,��
2017/11/23,21:20,0.891,1.429,0.915,1.712,1.165,0.493,0.884,0.840,�k��,6.2,��
2017/11/23,21:30,0.890,1.430,0.918,1.715,1.166,0.491,0.886,0.841,�k��,6.3,��
2017/11/23,21:40,0.891,1.431,0.919,1.714,1.167,0.492,0.884,0.842,�k��,6.5,��
2017/11/23,21:50,0.890,1.429,0.919,1.713,1.167,0.493,0.885,0.842,�k��,9.0,��
2017/11/23,22:00,0.890,1.432,0.919,1.714,1.166,0.493,0.885,0.841,�k��,7.3,��
2017/11/23,22:10,0.890,1.432,0.918,1.715,1.168,0.491,0.886,0.841,�k��,8.4,��
2017/11/23,22:20,0.890,1.432,0.920,1.713,1.165,0.494,0.885,0.841,�k��,8.4,��
2017/11/23,22:30,0.890,1.433,0.917,1.715,1.166,0.492,0.886,0.841,�k��,6.0,��
2017/11/23,22:40,0.889,1.432,0.918,1.717,1.166,0.494,0.886,0.842,�k�k��,5.8,��
2017/11/23,22:50,0.889,1.433,0.916,1.714,1.166,0.493,0.886,0.842,�k�k��,5.9,��
2017/11/23,23:00,0.889,1.432,0.920,1.711,1.167,0.491,0.886,0.843,�k�k��,5.7,��
2017/11/23,23:10,0.891,1.430,0.918,1.715,1.167,0.492,0.885,0.841,�k��,5.2,��
2017/11/23,23:20,0.889,1.431,0.918,1.713,1.168,0.493,0.883,0.841,���k��,4.8,��
2017/11/23,23:30,0.889,1.429,0.916,1.711,1.169,0.493,0.885,0.841,���k��,3.7,��
2017/11/23,23:40,0.890,1.430,0.915,1.713,1.168,0.492,0.884,0.841,���k��,3.4,��
2017/11/23,23:50,0.889,1.431,0.917,1.712,1.167,0.492,0.884,0.842,���k��,3.5,��
